Location: Canazei
(46.4667°N, 11.7667°E)
Time: 03:49:17
(UTC+00:00)

Cosmos 1842 - Pass Details

Date: 21 April 2021
Orbit: 520 x 536 km, 82.5° (Epoch: 10 May)

Event Time Altitude Azimuth Distance (km) Brightness Sun altitude
Exits shadow 03:17:30 - 201° (SSW) 1,969 5.7 -9.9°
Reaches altitude 10° 03:18:01 10° 203° (SSW) 1,761 5.4 -9.9°
Maximum altitude 03:21:48 55° 281° (WNW) 637 3.4 -9.3°
Drops below altitude 10° 03:25:37 10° 1° (N) 1,769 6.3 -8.7°
Sets 03:27:48 0° 5° (N) 2,661 7.3 -8.4°
